• In Netherlands
  • List of Countries
  • For 7 days
  • Water Temperature
  • Satellite Maps
  • Weather Map
  • Weather Widgets
  • user-avatar
    Login

    Hourly Weather Neuquén

    Today, 29 March, Wednesday

    Time Temperature Precipitation Wind Pressure Humidity
    00:00 +22°C° 1.5 mm 5 mps 734 mmHg 84%
    01:00 +21°C° 0 mm 5 mps 734 mmHg 85%
    02:00 +21°C° 1.8 mm 5 mps 733 mmHg 86%
    03:00 +21°C° 1.8 mm 5 mps 733 mmHg 88%
    04:00 +20°C° 1.8 mm 5 mps 732 mmHg 89%
    05:00 +20°C° 3.1 mm 6 mps 732 mmHg 89%
    06:00 +21°C° 3.1 mm 6 mps 732 mmHg 89%
    07:00 +21°C° 3.1 mm 6 mps 732 mmHg 89%
    08:00 +21°C° 4 mm 7 mps 732 mmHg 86%
    09:00 +22°C° 4 mm 7 mps 731 mmHg 84%
    10:00 +22°C° 4 mm 7 mps 731 mmHg 81%
    11:00 +23°C° 1.7 mm 7 mps 731 mmHg 78%
    12:00 +24°C° 1.7 mm 6 mps 731 mmHg 75%
    13:00 +25°C° 1.7 mm 5 mps 730 mmHg 71%
    14:00 +25°C° 3 mm 4 mps 730 mmHg 73%
    15:00 +24°C° 3 mm 3 mps 729 mmHg 74%
    16:00 +24°C° 3 mm 2 mps 729 mmHg 76%
    17:00 +22°C° 0.7 mm 3 mps 730 mmHg 71%
    18:00 +22°C° 0.7 mm 3 mps 730 mmHg 66%
    19:00 +22°C° 0.7 mm 4 mps 731 mmHg 62%
    20:00 +21°C° 0.1 mm 5 mps 731 mmHg 59%
    21:00 +20°C° 0.1 mm 6 mps 732 mmHg 57%
    22:00 +18°C° 0.1 mm 7 mps 732 mmHg 54%
    23:00 +17°C° 0 mm 7 mps 732 mmHg 55%

    Tomorrow, 30 March, Thursday

    Time Temperature Precipitation Wind Pressure Humidity
    00:00 +17°C° 0 mm 7 mps 733 mmHg 57%
    01:00 +16°C° 0 mm 7 mps 733 mmHg 58%
    02:00 +16°C° 0 mm 7 mps 733 mmHg 58%
    03:00 +15°C° 0 mm 6 mps 732 mmHg 58%
    04:00 +15°C° 0 mm 6 mps 732 mmHg 59%
    05:00 +15°C° 0 mm 6 mps 733 mmHg 58%
    06:00 +15°C° 0 mm 6 mps 733 mmHg 58%
    07:00 +15°C° 0 mm 6 mps 733 mmHg 57%
    08:00 +17°C° 0 mm 6 mps 733 mmHg 51%
    09:00 +20°C° 0 mm 6 mps 733 mmHg 45%
    10:00 +21°C° 0 mm 6 mps 734 mmHg 38%
    11:00 +22°C° 0 mm 5 mps 733 mmHg 36%
    12:00 +23°C° 0 mm 4 mps 733 mmHg 33%
    13:00 +25°C° 0 mm 4 mps 733 mmHg 30%
    14:00 +25°C° 0 mm 4 mps 732 mmHg 31%
    15:00 +25°C° 0 mm 3 mps 732 mmHg 31%
    16:00 +24°C° 0 mm 3 mps 732 mmHg 31%
    17:00 +22°C° 0 mm 3 mps 732 mmHg 34%
    18:00 +21°C° 0 mm 2 mps 732 mmHg 37%
    19:00 +19°C° 0 mm 2 mps 733 mmHg 40%
    20:00 +19°C° 0 mm 2 mps 733 mmHg 41%
    21:00 +19°C° 0 mm 2 mps 734 mmHg 42%
    22:00 +20°C° 0 mm 1 mps 734 mmHg 43%
    23:00 +20°C° 0 mm 1 mps 734 mmHg 45%

    Day after tomorrow, 31 March, Friday

    Time Temperature Precipitation Wind Pressure Humidity
    00:00 +19°C° 0 mm 1 mps 734 mmHg 47%
    01:00 +19°C° 0 mm 1 mps 734 mmHg 48%
    02:00 +17°C° 0 mm 2 mps 734 mmHg 48%
    03:00 +17°C° 0 mm 3 mps 734 mmHg 48%
    04:00 +17°C° 0 mm 3 mps 734 mmHg 48%
    05:00 +17°C° 0 mm 4 mps 734 mmHg 56%
    06:00 +15°C° 0 mm 5 mps 735 mmHg 64%
    07:00 +15°C° 0 mm 6 mps 735 mmHg 72%
    08:00 +16°C° 0 mm 7 mps 735 mmHg 68%
    09:00 +17°C° 0 mm 7 mps 736 mmHg 64%
    10:00 +18°C° 0 mm 7 mps 736 mmHg 61%
    11:00 +18°C° 0 mm 7 mps 736 mmHg 62%
    12:00 +18°C° 0 mm 7 mps 736 mmHg 64%
    13:00 +17°C° 0 mm 7 mps 736 mmHg 66%
    14:00 +17°C° 0 mm 7 mps 736 mmHg 68%
    15:00 +17°C° 0 mm 7 mps 736 mmHg 71%
    16:00 +16°C° 0 mm 7 mps 735 mmHg 74%
    17:00 +16°C° 0 mm 7 mps 736 mmHg 77%
    18:00 +15°C° 0 mm 6 mps 737 mmHg 80%
    19:00 +14°C° 0 mm 6 mps 737 mmHg 83%
    20:00 +14°C° 0 mm 6 mps 737 mmHg 83%
    21:00 +15°C° 0 mm 5 mps 737 mmHg 83%
    22:00 +15°C° 0 mm 5 mps 738 mmHg 82%
    23:00 +14°C° 0 mm 5 mps 737 mmHg 82%

    1 April, Saturday

    Time Temperature Precipitation Wind Pressure Humidity
    00:00 +14°C° 0 mm 5 mps 737 mmHg 82%
    01:00 +14°C° 0 mm 5 mps 737 mmHg 81%
    02:00 +14°C° 0 mm 5 mps 737 mmHg 81%
    03:00 +14°C° 0 mm 5 mps 736 mmHg 81%
    04:00 +14°C° 0 mm 5 mps 736 mmHg 81%
    05:00 +14°C° 0.2 mm 5 mps 736 mmHg 81%
    06:00 +14°C° 0.2 mm 5 mps 736 mmHg 81%
    07:00 +15°C° 0.2 mm 5 mps 736 mmHg 81%
    08:00 +15°C° 0.5 mm 5 mps 736 mmHg 82%
    09:00 +15°C° 0.5 mm 5 mps 736 mmHg 82%
    10:00 +15°C° 0.5 mm 5 mps 736 mmHg 83%
    11:00 +16°C° 0.4 mm 5 mps 736 mmHg 82%
    12:00 +16°C° 0.4 mm 5 mps 735 mmHg 81%
    13:00 +16°C° 0.4 mm 5 mps 735 mmHg 81%
    14:00 +17°C° 0.1 mm 6 mps 734 mmHg 80%
    15:00 +17°C° 0.1 mm 6 mps 734 mmHg 79%
    16:00 +19°C° 0.1 mm 6 mps 734 mmHg 78%
    17:00 +17°C° 0.6 mm 5 mps 734 mmHg 83%
    18:00 +17°C° 0.6 mm 4 mps 734 mmHg 87%
    19:00 +17°C° 0.6 mm 3 mps 734 mmHg 91%
    20:00 +17°C° 0.3 mm 3 mps 734 mmHg 91%
    21:00 +17°C° 0.3 mm 3 mps 734 mmHg 91%
    22:00 +17°C° 0.3 mm 3 mps 734 mmHg 91%
    23:00 +17°C° 0 mm 3 mps 734 mmHg 92%

    2 April, Sunday

    Time Temperature Precipitation Wind Pressure Humidity
    00:00 +17°C° 0 mm 3 mps 734 mmHg 92%
    01:00 +16°C° 0 mm 3 mps 734 mmHg 93%
    02:00 +16°C° 0 mm 3 mps 734 mmHg 93%
    03:00 +16°C° 0 mm 3 mps 734 mmHg 93%
    04:00 +16°C° 0 mm 3 mps 734 mmHg 93%
    05:00 +16°C° 0 mm 3 mps 734 mmHg 86%
    06:00 +16°C° 0 mm 3 mps 734 mmHg 80%
    07:00 +17°C° 0 mm 4 mps 734 mmHg 74%
    08:00 +17°C° 0 mm 5 mps 735 mmHg 61%
    09:00 +20°C° 0 mm 5 mps 735 mmHg 48%
    10:00 +22°C° 0 mm 6 mps 735 mmHg 35%
    11:00 +22°C° 0 mm 7 mps 734 mmHg 32%
    12:00 +23°C° 0 mm 7 mps 734 mmHg 28%
    13:00 +24°C° 0 mm 7 mps 733 mmHg 25%
    14:00 +24°C° 0 mm 6 mps 733 mmHg 25%
    15:00 +23°C° 0 mm 6 mps 733 mmHg 25%
    16:00 +23°C° 0 mm 5 mps 733 mmHg 25%
    17:00 +22°C° 0 mm 5 mps 733 mmHg 29%
    18:00 +20°C° 0 mm 5 mps 733 mmHg 34%
    19:00 +17°C° 0 mm 5 mps 734 mmHg 38%
    20:00 +17°C° 0 mm 5 mps 734 mmHg 41%
    21:00 +16°C° 0 mm 5 mps 734 mmHg 44%
    22:00 +15°C° 0 mm 5 mps 734 mmHg 47%
    23:00 +15°C° 0 mm 4 mps 734 mmHg 50%

    3 April, Monday

    Time Temperature Precipitation Wind Pressure Humidity
    00:00 +14°C° 0 mm 4 mps 734 mmHg 53%
    01:00 +14°C° 0 mm 3 mps 734 mmHg 56%
    02:00 +14°C° 0 mm 3 mps 734 mmHg 58%
    03:00 +13°C° 0 mm 3 mps 734 mmHg 59%
    04:00 +13°C° 0 mm 3 mps 733 mmHg 60%
    05:00 +13°C° 0 mm 3 mps 733 mmHg 59%
    06:00 +15°C° 0 mm 2 mps 733 mmHg 58%
    07:00 +15°C° 0 mm 2 mps 734 mmHg 57%
    08:00 +17°C° 0 mm 2 mps 733 mmHg 50%
    09:00 +19°C° 0 mm 3 mps 733 mmHg 43%
    10:00 +21°C° 0 mm 3 mps 733 mmHg 36%
    11:00 +22°C° 0 mm 4 mps 732 mmHg 35%
    12:00 +23°C° 0 mm 5 mps 732 mmHg 34%
    13:00 +25°C° 0 mm 5 mps 731 mmHg 34%
    14:00 +25°C° 0 mm 5 mps 731 mmHg 35%
    15:00 +25°C° 0 mm 4 mps 730 mmHg 36%
    16:00 +25°C° 0 mm 3 mps 730 mmHg 37%
    17:00 +24°C° 0 mm 3 mps 730 mmHg 43%
    18:00 +21°C° 0 mm 4 mps 730 mmHg 48%
    19:00 +20°C° 0 mm 4 mps 730 mmHg 54%
    20:00 +19°C° 0.1 mm 4 mps 730 mmHg 56%
    21:00 +19°C° 0.1 mm 4 mps 730 mmHg 57%
    22:00 +19°C° 0.1 mm 4 mps 730 mmHg 59%
    23:00 +18°C° 0 mm 3 mps 730 mmHg 60%
    Show more